T 2003 Apr. 29.8899 TT MPC q 1.553788 (2000.0) P Q Peri. 190.6530 -0.9020995 +0.1239787 Node 24.5677 -0.2851176 +0.5477482 e 1.0 Incl. 96.2024 -0.3239204 -0.8274063 >From 98 observations 2003 Apr. 8-May 2.
m1 = 16.5 + 5 logΔ + 10.0 log r